Weather History for PAKV - November, 2012

Change the Weather History Date:

Friday, November 23, 2012

  Actual Average (PAGA) Record (PAGA)
Temperature  
Mean Temperature 10 °F -  
Max Temperature 12 °F 5 °F 44 °F (1952)
Min Temperature 8 °F -5 °F -42 °F (1974)
Degree Days  
Heating Degree Days 55    
Moisture  
Dew Point -5 °F    
Average Humidity 51    
Maximum Humidity 56    
Minimum Humidity 47    
Precipitation  
Precipitation 0.00 in - - ()
Sea Level Pressure  
Sea Level Pressure 30.11 in    
Wind  
Wind Speed 16 mph (NE)    
Max Wind Speed 20 mph    
Max Gust Speed 29 mph    
Visibility 10 miles    
Events      
Averages and records for this station are not official NWS values.
T = Trace of Precipitation, MM = Missing Value Source: NWS Daily Summary

Daily Weather History Graph

Daily Weather History Graph

Search for Another Location

Airport or City:

Trip Planner

Search our weather history database for the weather conditions in past years. The results will help you decide how hot, cold, wet, or windy it might be!

Date:

Astronomy

Nov. 23, 2012 Rise Set
Actual Time 10:33 AM AKST 4:08 PM AKST
Civil Twilight 9:27 AM AKST 5:15 PM AKST
Nautical Twilight 8:23 AM AKST 6:19 PM AKST
Astronomical Twilight 7:25 AM AKST 7:16 PM AKST
Moon 2:51 PM AKST (11/23) 4:32 AM AKST (11/23)
Length of Visible Light 7h 48m
Length of Day
5h 35m
Waxing Gibbous, 81% of the Moon is Illuminated
Nov 23
Waxing Gibbous
Nov 28
Full
Dec 6
Last Quarter
Dec 12
New
Dec 19
First Quarter

Hourly Weather History & Observations

Time (AKST) Temp. Windchill Dew Point Humidity Pressure Visibility Wind Dir Wind Speed Gust Speed Precip Events Conditions
12:53 AM 8.1 °F -11.2 °F -5.1 °F 55% 30.15 in 10.0 mi NE 19.6 mph 28.8 mph N/A   Clear
1:53 AM 8.1 °F -8.4 °F -5.1 °F 55% 30.13 in 10.0 mi NE 13.8 mph 26.5 mph N/A   Clear
2:53 AM 9.0 °F -8.5 °F -4.0 °F 56% 30.12 in 10.0 mi NE 16.1 mph 25.3 mph N/A   Clear
3:53 AM 9.0 °F -10.0 °F -5.1 °F 53% 30.11 in 10.0 mi NE 19.6 mph 27.6 mph N/A   Clear
4:53 AM 9.0 °F -9.5 °F -5.1 °F 53% 30.11 in 10.0 mi NE 18.4 mph 27.6 mph N/A   Clear
5:53 AM 9.0 °F -8.5 °F -5.1 °F 53% 30.10 in 10.0 mi NE 16.1 mph 24.2 mph N/A   Clear
6:53 AM 10.0 °F -8.6 °F -5.1 °F 51% 30.09 in 10.0 mi NE 19.6 mph 26.5 mph N/A   Clear
7:53 AM 10.0 °F -7.1 °F -5.1 °F 51% 30.08 in 10.0 mi NE 16.1 mph 23.0 mph N/A   Clear
8:53 AM 10.0 °F -6.5 °F -5.1 °F 51% 30.09 in 10.0 mi NE 15.0 mph 23.0 mph N/A   Clear
9:53 AM 10.0 °F -7.1 °F -5.1 °F 51% 30.09 in 10.0 mi NE 16.1 mph 25.3 mph N/A   Clear
10:53 AM 10.9 °F -5.4 °F -4.0 °F 51% 30.09 in 10.0 mi NE 15.0 mph 28.8 mph N/A   Clear
11:53 AM 10.9 °F -6.5 °F -4.0 °F 51% 30.09 in 10.0 mi NE 17.3 mph 21.9 mph N/A   Clear
12:00 PM 12.2 °F -4.3 °F -4.0 °F 48% 30.08 in 10.0 mi NNE 16.1 mph 24.2 mph N/A   Clear
12:53 PM 12.0 °F -4.5 °F -4.0 °F 49% 30.10 in 10.0 mi NE 16.1 mph 24.2 mph N/A   Clear
1:53 PM 12.0 °F -4.0 °F -4.0 °F 49% 30.10 in 10.0 mi NE 15.0 mph 24.2 mph N/A   Clear
2:53 PM 12.9 °F -4.9 °F -4.0 °F 47% 30.11 in 10.0 mi NE 19.6 mph 26.5 mph N/A   Clear
3:53 PM 12.0 °F -3.4 °F -4.0 °F 49% 30.11 in 10.0 mi NE 13.8 mph 23.0 mph N/A   Clear
4:53 PM 12.0 °F -3.4 °F -4.0 °F 49% 30.11 in 10.0 mi NNE 13.8 mph 20.7 mph N/A   Clear
5:53 PM 12.0 °F -4.0 °F -4.0 °F 49% 30.12 in 10.0 mi NE 15.0 mph - N/A   Clear
6:53 PM 10.9 °F -3.4 °F -4.0 °F 51% 30.13 in 10.0 mi NE 11.5 mph - N/A   Clear
7:53 PM 10.9 °F -1.8 °F -4.0 °F 51% 30.13 in 10.0 mi NNE 9.2 mph - N/A   Clear
8:53 PM 10.0 °F -3.7 °F -5.1 °F 51% 30.14 in 10.0 mi NE 10.4 mph 16.1 mph N/A   Clear
9:53 PM 9.0 °F -4.2 °F -5.1 °F 53% 30.14 in 10.0 mi NNE 9.2 mph - N/A   Clear
10:53 PM 9.0 °F -2.2 °F -5.1 °F 53% 30.15 in 10.0 mi NE 6.9 mph - N/A   Clear
11:53 PM 10.9 °F -3.4 °F -5.1 °F 49% 30.17 in 10.0 mi NE 11.5 mph - N/A   Clear